TimeCDT,TemperatureF,Dew PointF,Humidity,Sea Level PressureIn,VisibilityMPH,Wind Direction,Wind SpeedMPH,Gust SpeedMPH,PrecipitationIn,Events,Conditions,WindDirDegrees,DateUTC
12:54 AM,63.0,62.1,97,29.98,7.0,ESE,4.6,-,N/A,,Overcast,120,2011-10-11 05:54:00
1:54 AM,63.0,62.1,97,29.98,10.0,SSE,4.6,-,0.00,,Overcast,150,2011-10-11 06:54:00
2:54 AM,64.0,61.0,90,29.96,7.0,South,9.2,-,0.00,Rain,Light Rain,190,2011-10-11 07:54:00
3:54 AM,62.6,60.8,94,29.98,10.0,South,4.6,-,N/A,,Partly Cloudy,170,2011-10-11 08:54:00
4:54 AM,60.8,59.0,94,29.99,10.0,SE,3.5,-,N/A,,Scattered Clouds,140,2011-10-11 09:54:00
5:54 AM,59.0,57.0,93,29.98,10.0,SE,6.9,-,N/A,,Clear,130,2011-10-11 10:54:00
6:54 AM,59.0,57.0,93,29.98,10.0,SSE,4.6,-,N/A,,Mostly Cloudy,160,2011-10-11 11:54:00
7:54 AM,57.9,57.0,97,29.98,10.0,SSE,5.8,-,N/A,,Clear,160,2011-10-11 12:54:00
8:54 AM,62.1,60.1,93,29.99,10.0,SSE,6.9,-,N/A,,Clear,150,2011-10-11 13:54:00
9:54 AM,66.0,60.1,81,29.99,10.0,SE,6.9,-,N/A,,Clear,140,2011-10-11 14:54:00
10:54 AM,69.1,62.1,78,29.97,10.0,SW,3.5,-,N/A,,Clear,220,2011-10-11 15:54:00
11:54 AM,73.0,62.1,68,29.96,10.0,Variable,4.6,-,N/A,,Clear,0,2011-10-11 16:54:00
12:54 PM,75.9,61.0,60,29.93,10.0,SSW,6.9,-,N/A,,Partly Cloudy,200,2011-10-11 17:54:00
1:54 PM,75.9,59.0,56,29.89,10.0,South,8.1,-,N/A,,Clear,180,2011-10-11 18:54:00
2:54 PM,77.0,57.2,50,29.90,10.0,SSW,9.2,-,N/A,,Partly Cloudy,200,2011-10-11 19:54:00
3:54 PM,79.0,57.9,48,29.86,10.0,South,5.8,-,N/A,,Scattered Clouds,190,2011-10-11 20:54:00
4:54 PM,75.0,57.9,55,29.86,10.0,South,6.9,-,N/A,,Scattered Clouds,180,2011-10-11 21:54:00
5:54 PM,73.0,59.0,61,29.85,10.0,SSW,4.6,-,N/A,,Overcast,200,2011-10-11 22:54:00
6:54 PM,71.1,59.0,66,29.85,10.0,East,5.8,-,N/A,,Overcast,100,2011-10-11 23:54:00
7:54 PM,69.1,59.0,70,29.86,10.0,ESE,5.8,-,N/A,,Overcast,120,2011-10-12 00:54:00
8:54 PM,68.0,59.0,73,29.86,10.0,SE,6.9,-,N/A,,Overcast,130,2011-10-12 01:54:00
9:54 PM,66.0,60.1,81,29.86,10.0,SSE,4.6,-,N/A,,Overcast,160,2011-10-12 02:54:00
10:54 PM,64.9,60.1,84,29.85,10.0,ESE,4.6,-,N/A,,Clear,110,2011-10-12 03:54:00
11:54 PM,63.0,60.1,90,29.84,10.0,ESE,5.8,-,N/A,,Clear,120,2011-10-12 04:54:00